Regional Weather Roundup
Issued by NWS Northern Indiana

Home | Current Version | Previous Version | Graphics & Text | Print | Product List | Glossary On
Versions: 1 2 3 4 5 6 7 8 9 10 11 12 13 14 15 16 17 18 19 20 21 22 23 24 25 26 27 28 29 30 31 32 33 34 35 36 37 38 39 40 41 42 43 44 45 46 47 48 49 50
447
ASUS43 KIWX 081400
RWRIWX

KIWX WEATHER ROUNDUP
NATIONAL WEATHER SERVICE NORTHERN INDIANA
900 AM EST THU DEC 08 2016

NOTE: "FAIR" INDICATES FEW OR NO CLOUDS BELOW 12,000 FEET WITH NO
SIGNIFICANT WEATHER AND/OR OBSTRUCTIONS TO VISIBILITY.

* THESE STATIONS ARE NOT UNDER NWS QUALITY CONTROL. THEY ALSO MAY NOT
  REPORT WEATHER SUCH AS PRECIPITATION OR FOG.

INZ001>027-081500-
NORTHERN INDIANA

CITY           SKY/WX    TMP DP  RH WIND       PRES   REMARKS
SOUTH BEND     FLURRIES  20  15  81 W18       30.16R WCI   5
GOSHEN         LGT SNOW  22  13  68 W21G30    30.16R WCI   6
ANGOLA*        CLOUDY    21  18  86 W12       30.10R WCI   9
FORT WAYNE     FLURRIES  23  16  74 W20       30.17R WCI   8

$$
INZ028>050-081500-
CENTRAL INDIANA

CITY           SKY/WX    TMP DP  RH WIND       PRES   REMARKS
LAFAYETTE      FLURRIES  20  13  74 W14G28    30.29R WCI   7
MUNCIE*        CLOUDY    23  14  68 W21G30    30.22R WCI   8
INDIANAPOLIS   MOCLDY    21  13  71 W17       30.28R WCI   7

$$
MIZ043>046-050>051-056>058-064>065-071>073-077>080-081500-
SOUTHWEST LOWER MICHIGAN

CITY           SKY/WX    TMP DP  RH WIND       PRES   REMARKS
BATTLE CREEK   FLURRIES  26  21  81 W12       30.06R WCI  16
BENTON HARBOR  LGT SNOW  26  18  71 W29G36    30.14R WCI  10
HOLLAND        FLURRIES  27  19  72 W16G30    30.08R WCI  15
GRAND RAPIDS   LGT SNOW  26  19  74 W16G24    30.05R WCI  14
KALAMAZOO      LGT SNOW  25  20  81 W12       30.08R VSB 1   WCI  14

$$
OHZ001>008-015>018-024>025-081500-
NORTHWEST OHIO

CITY           SKY/WX    TMP DP  RH WIND       PRES   REMARKS
DEFIANCE       FLURRIES  25  13  60 W15G24    30.15R WCI  13
FINDLAY        CLOUDY    25  15  66 W14       30.14R WCI  13
TOLEDO EXPRESS FLURRIES  25  18  74 W18G28    30.11R WCI  11
TOLEDO METCALF LGT SNOW  26  19  74 W20G28    30.12R WCI  12
LIMA           CLOUDY    24  18  77 W15       30.15R WCI  11

$$
AND FOR LAKE MICHIGAN COASTAL AND OPEN LAKE BUOY OBSERVATIONS

STATION/POSITION TEMP    WIND        PRES    VSBY  WAVE
                 AIR SEA DIR/SP/G                  HT/PER
                 (F)     (DEG/KT/KT) (MB)    (MI)  (FT/S)
CALUMET HARBOR    20     240/ 12/ 20 1022.4R
MICHIGAN CITY     22     240/ 30/ 32   N/A
BURNS HARBOR      23     250/ 22/ 28 1023.4R
SAINT JOSEPH      28     250/ 22     1021.0R

$$
&&




USA.gov is the U.S. government's official web portal to all federal, state and local government web resources and services.